Regional Weather Roundup
Issued by NWS

Home | Current Version | Previous Version | Text Only | Print | Product List | Glossary On
Versions: 1 2 3 4 5 6 7 8 9 10 11 12 13 14 15 16 17 18 19 20 21 22 23 24 25 26 27 28 29 30 31 32 33 34 35 36 37 38 39 40 41 42 43 44 45 46 47 48 49 50
000
ASUS44 KJAN 200410
RWRMS

MISSISSIPPI HOURLY WEATHER ROUNDUP
NATIONAL WEATHER SERVICE JACKSON MS
1100 PM CDT SAT AUG 19 2017

NOTE: "FAIR: INDICATES FEW OR NO CLOUDS BELOW 12,000 FEET WITH NO
SIGNIFICANT WEATHER AND/OR OBSTRUCTIONS TO VISIBILITY.

MSZ001>002-007>008-010>013-018>021-025>028-034>036-200500-
NORTHWEST MISSISSIPPI

CITY           SKY/WX    TMP DP  RH WIND       PRES   REMARKS
BATESVILLE     FAIR      76  74  94 CALM      29.99S FOG
CLARKSDALE       N/A     79  79 100 CALM      29.98R
CLEVELAND      FAIR      79  79 100 S5        29.97S
GREENWOOD      CLEAR     79  77  94 S3        29.98S
GREENVILLE     CLEAR     80  73  79 SW8       29.98R
TUNICA           N/A     79  77  94 CALM      29.99R
WINONA         FAIR      77  77 100 CALM      29.99S
$$

MSZ003>006-009-014>017-022>024-029>033-037>039-200500-
NORTHEAST MISSISSIPPI

CITY           SKY/WX    TMP DP  RH WIND       PRES   REMARKS
COLUMBUS AFB   CLEAR     78  78 100 CALM      29.98R
GOLDN TRIANGLE CLEAR     81  72  74 CALM        N/A
STARKVILLE     FAIR      77  75  94 CALM      30.00S
TUPELO         MOCLDY    82  73  74 CALM      29.99R
$$

MSZ040-058-200500-
CENTRAL MISSISSIPPI

CITY           SKY/WX    TMP DP  RH WIND       PRES   REMARKS
JACKSON INTL   CLEAR     74  73  97 CALM      30.00S
JACKSON HAWKNS CLEAR     75  74  96 CALM      30.01S
MADISON        FAIR      72  70  94 CALM      30.01R
MERIDIAN KEY   CLEAR     78  75  90 CALM      30.01S
MERIDIAN NAS   CLEAR     79  76  90 CALM      30.01R
RAYMOND        FAIR      73  72  94 CALM      30.00F FOG
VICKSBURG VKS  CLEAR     73  72  94 SE5       30.00R
$$

MSZ059>079-200500-
SOUTH MISSISSIPPI

CITY           SKY/WX    TMP DP  RH WIND       PRES   REMARKS
HATTIESBURG    MOCLDY    74  74 100 CALM      30.01F
LAUREL         FAIR      75  75 100 S3        30.02R
MCCOMB         CLEAR     75  72  90 CALM      30.01F
NATCHEZ        CLEAR     76  74  93 SE5       30.02R
PINE BELT      PTCLDY    73  72  96 CALM      30.02S
$$

MSZ080>082-200500-
COASTAL MISSISSIPPI

CITY           SKY/WX    TMP DP  RH WIND       PRES   REMARKS
BILOXI         CLOUDY    76  73  90 NE5       29.99R
PASCAGOULA     PTCLDY    74  71  91 CALM      30.00R
GULFPORT       CLOUDY    76  74  93 E5        29.99R
$$

LAZ007>009-015>016-023>026-200500-
NORTHEAST LOUISIANA

CITY           SKY/WX    TMP DP  RH WIND       PRES   REMARKS
BASTROP        FAIR      77  77  98 CALM      30.00S
TALLULAH/VBURG CLEAR     74  72  93 CALM      30.00R
VIDALIA          N/A    N/A N/A N/A MISG      30.00R
$$



USA.gov is the U.S. government's official web portal to all federal, state and local government web resources and services.